Meteo pe oră la Al Hilla

Astăzi, 30 Iulie, Vineri

Timp Temperatura Precipitaţii Vânt Presiune Umiditate
00:00 +40°C° 0 mm 4 m/s 743 mmHg 17%
01:00 +38°C° 0 mm 4 m/s 743 mmHg 19%
02:00 +38°C° 0 mm 4 m/s 743 mmHg 20%
03:00 +37°C° 0 mm 4 m/s 743 mmHg 21%
04:00 +37°C° 0 mm 4 m/s 743 mmHg 21%
05:00 +36°C° 0 mm 4 m/s 743 mmHg 22%
06:00 +36°C° 0 mm 4 m/s 744 mmHg 22%
07:00 +38°C° 0 mm 4 m/s 744 mmHg 20%
08:00 +42°C° 0 mm 5 m/s 744 mmHg 17%
09:00 +45°C° 0 mm 6 m/s 744 mmHg 14%
10:00 +46°C° 0 mm 5 m/s 744 mmHg 13%
11:00 +47°C° 0 mm 5 m/s 744 mmHg 11%
12:00 +49°C° 0 mm 5 m/s 744 mmHg 9%
13:00 +49°C° 0 mm 5 m/s 743 mmHg 9%
14:00 +49°C° 0 mm 5 m/s 743 mmHg 9%
15:00 +50°C° 0 mm 4 m/s 742 mmHg 9%
16:00 +50°C° 0 mm 4 m/s 742 mmHg 9%
17:00 +48°C° 0 mm 3 m/s 742 mmHg 9%
18:00 +48°C° 0 mm 2 m/s 742 mmHg 9%
19:00 +46°C° 0 mm 2 m/s 742 mmHg 10%
20:00 +45°C° 0 mm 2 m/s 742 mmHg 11%
21:00 +42°C° 0 mm 1 m/s 743 mmHg 12%
22:00 +41°C° 0 mm 2 m/s 743 mmHg 13%
23:00 +41°C° 0 mm 2 m/s 743 mmHg 13%

Mâine, 31 Iulie, Sâmbătă

Timp Temperatura Precipitaţii Vânt Presiune Umiditate
00:00 +40°C° 0 mm 2 m/s 743 mmHg 14%
01:00 +39°C° 0 mm 2 m/s 743 mmHg 15%
02:00 +39°C° 0 mm 3 m/s 743 mmHg 17%
03:00 +38°C° 0 mm 3 m/s 742 mmHg 19%
04:00 +38°C° 0 mm 3 m/s 743 mmHg 20%
05:00 +37°C° 0 mm 3 m/s 743 mmHg 22%
06:00 +37°C° 0 mm 2 m/s 743 mmHg 24%
07:00 +39°C° 0 mm 2 m/s 743 mmHg 20%
08:00 +41°C° 0 mm 2 m/s 744 mmHg 17%
09:00 +43°C° 0 mm 1 m/s 744 mmHg 14%
10:00 +45°C° 0 mm 1 m/s 744 mmHg 12%
11:00 +46°C° 0 mm 1 m/s 744 mmHg 10%
12:00 +48°C° 0 mm 1 m/s 743 mmHg 8%
13:00 +49°C° 0 mm 1 m/s 743 mmHg 7%
14:00 +50°C° 0 mm 2 m/s 743 mmHg 7%
15:00 +52°C° 0 mm 3 m/s 742 mmHg 6%
16:00 +51°C° 0 mm 4 m/s 742 mmHg 7%
17:00 +52°C° 0 mm 5 m/s 743 mmHg 7%
18:00 +51°C° 0 mm 6 m/s 743 mmHg 7%
19:00 +48°C° 0 mm 5 m/s 743 mmHg 8%
20:00 +47°C° 0 mm 4 m/s 744 mmHg 10%
21:00 +44°C° 0 mm 4 m/s 744 mmHg 11%
22:00 +43°C° 0 mm 4 m/s 744 mmHg 11%
23:00 +43°C° 0 mm 4 m/s 744 mmHg 11%

Poimâine, 1 August, Duminică

Timp Temperatura Precipitaţii Vânt Presiune Umiditate
00:00 +42°C° 0 mm 4 m/s 745 mmHg 11%
01:00 +42°C° 0 mm 4 m/s 744 mmHg 13%
02:00 +41°C° 0 mm 4 m/s 744 mmHg 15%
03:00 +40°C° 0 mm 4 m/s 744 mmHg 16%
04:00 +39°C° 0 mm 3 m/s 745 mmHg 16%
05:00 +38°C° 0 mm 3 m/s 745 mmHg 16%
06:00 +38°C° 0 mm 2 m/s 746 mmHg 15%
07:00 +40°C° 0 mm 3 m/s 746 mmHg 14%
08:00 +43°C° 0 mm 3 m/s 746 mmHg 12%
09:00 +45°C° 0 mm 4 m/s 746 mmHg 10%
10:00 +48°C° 0 mm 4 m/s 746 mmHg 9%
11:00 +49°C° 0 mm 4 m/s 746 mmHg 8%
12:00 +50°C° 0 mm 3 m/s 745 mmHg 8%
13:00 +51°C° 0 mm 4 m/s 745 mmHg 7%
14:00 +51°C° 0 mm 4 m/s 745 mmHg 7%
15:00 +53°C° 0 mm 5 m/s 744 mmHg 7%
16:00 +52°C° 0 mm 5 m/s 744 mmHg 7%
17:00 +52°C° 0 mm 6 m/s 744 mmHg 7%
18:00 +51°C° 0 mm 6 m/s 744 mmHg 7%
19:00 +48°C° 0 mm 5 m/s 744 mmHg 8%
20:00 +47°C° 0 mm 4 m/s 744 mmHg 8%
21:00 +45°C° 0 mm 3 m/s 745 mmHg 8%
22:00 +44°C° 0 mm 3 m/s 745 mmHg 9%
23:00 +43°C° 0 mm 4 m/s 745 mmHg 10%

2 August, Luni

Timp Temperatura Precipitaţii Vânt Presiune Umiditate
00:00 +42°C° 0 mm 4 m/s 745 mmHg 10%
01:00 +41°C° 0 mm 4 m/s 744 mmHg 11%
02:00 +39°C° 0 mm 3 m/s 744 mmHg 11%
03:00 +38°C° 0 mm 3 m/s 744 mmHg 12%
04:00 +38°C° 0 mm 4 m/s 745 mmHg 13%
05:00 +38°C° 0 mm 4 m/s 745 mmHg 14%
06:00 +37°C° 0 mm 4 m/s 745 mmHg 15%
07:00 +41°C° 0 mm 4 m/s 746 mmHg 12%
08:00 +44°C° 0 mm 4 m/s 746 mmHg 10%
09:00 +47°C° 0 mm 4 m/s 746 mmHg 8%
10:00 +49°C° 0 mm 5 m/s 746 mmHg 7%
11:00 +50°C° 0 mm 5 m/s 745 mmHg 7%
12:00 +52°C° 0 mm 5 m/s 745 mmHg 6%
13:00 +52°C° 0 mm 6 m/s 745 mmHg 6%
14:00 +52°C° 0 mm 6 m/s 744 mmHg 6%
15:00 +52°C° 0 mm 7 m/s 744 mmHg 6%
16:00 +52°C° 0 mm 6 m/s 744 mmHg 6%
17:00 +50°C° 0 mm 5 m/s 744 mmHg 6%
18:00 +49°C° 0 mm 4 m/s 744 mmHg 6%
19:00 +47°C° 0 mm 3 m/s 745 mmHg 7%
20:00 +45°C° 0 mm 2 m/s 745 mmHg 8%
21:00 +42°C° 0 mm 2 m/s 745 mmHg 8%
22:00 +41°C° 0 mm 2 m/s 745 mmHg 9%
23:00 +41°C° 0 mm 2 m/s 745 mmHg 9%

3 August, Marţi

Timp Temperatura Precipitaţii Vânt Presiune Umiditate
00:00 +40°C° 0 mm 3 m/s 745 mmHg 9%
01:00 +40°C° 0 mm 3 m/s 745 mmHg 10%
02:00 +39°C° 0 mm 3 m/s 745 mmHg 11%
03:00 +38°C° 0 mm 3 m/s 745 mmHg 12%
04:00 +38°C° 0 mm 3 m/s 745 mmHg 13%
05:00 +37°C° 0 mm 2 m/s 745 mmHg 13%
06:00 +37°C° 0 mm 2 m/s 746 mmHg 14%
07:00 +39°C° 0 mm 2 m/s 746 mmHg 12%
08:00 +42°C° 0 mm 2 m/s 746 mmHg 11%
09:00 +45°C° 0 mm 3 m/s 747 mmHg 9%
10:00 +46°C° 0 mm 3 m/s 746 mmHg 8%
11:00 +48°C° 0 mm 3 m/s 746 mmHg 7%
12:00 +50°C° 0 mm 4 m/s 746 mmHg 6%
13:00 +50°C° 0 mm 5 m/s 746 mmHg 6%
14:00 +52°C° 0 mm 6 m/s 745 mmHg 5%
15:00 +52°C° 0 mm 6 m/s 745 mmHg 5%
16:00 +50°C° 0 mm 5 m/s 745 mmHg 6%
17:00 +50°C° 0 mm 4 m/s 745 mmHg 6%
18:00 +48°C° 0 mm 3 m/s 745 mmHg 7%
19:00 +47°C° 0 mm 3 m/s 745 mmHg 8%
20:00 +45°C° 0 mm 2 m/s 746 mmHg 9%
21:00 +42°C° 0 mm 2 m/s 746 mmHg 10%
22:00 +42°C° 0 mm 2 m/s 746 mmHg 11%
23:00 +42°C° 0 mm 3 m/s 746 mmHg 11%

4 August, Miercuri

Timp Temperatura Precipitaţii Vânt Presiune Umiditate
00:00 +42°C° 0 mm 4 m/s 746 mmHg 12%
01:00 +40°C° 0 mm 3 m/s 746 mmHg 13%
02:00 +40°C° 0 mm 3 m/s 746 mmHg 14%
03:00 +39°C° 0 mm 3 m/s 746 mmHg 15%
04:00 +39°C° 0 mm 3 m/s 747 mmHg 17%
05:00 +38°C° 0 mm 4 m/s 747 mmHg 20%
06:00 +38°C° 0 mm 4 m/s 748 mmHg 22%
07:00 +41°C° 0 mm 4 m/s 748 mmHg 19%
08:00 +44°C° 0 mm 4 m/s 748 mmHg 16%
09:00 +47°C° 0 mm 4 m/s 748 mmHg 13%
10:00 +48°C° 0 mm 5 m/s 748 mmHg 12%
11:00 +49°C° 0 mm 5 m/s 748 mmHg 11%
12:00 +49°C° 0 mm 5 m/s 748 mmHg 10%
13:00 +50°C° 0 mm 5 m/s 747 mmHg 10%
14:00 +52°C° 0 mm 5 m/s 747 mmHg 9%
15:00 +52°C° 0 mm 5 m/s 746 mmHg 9%
16:00 +52°C° 0 mm 5 m/s 746 mmHg 9%
17:00 +51°C° 0 mm 4 m/s 746 mmHg 9%
18:00 +50°C° 0 mm 3 m/s 746 mmHg 10%
19:00 +48°C° 0 mm 4 m/s 746 mmHg 11%
20:00 +47°C° 0 mm 4 m/s 747 mmHg 12%
21:00 +44°C° 0 mm 4 m/s 747 mmHg 14%
22:00 +43°C° 0 mm 4 m/s 747 mmHg 14%
23:00 +43°C° 0 mm 4 m/s 747 mmHg 15%
Arată mai mult

Formular de consimțământ

Meteoprog și furnizorii noștri de servicii pot stoca și accesa date personale, precum cookies, identificatori de dispozitiv sau alte tehnologii similare pe dispozitivul dumneavoastră și procesa astfel de date pentru a personaliza conținutul și reclamele, dar și pentru a oferi caracteristici de social media și pentru a analiza traficul.

  • Stocarea și/sau accesarea informațiilor pe dispozitivul dumneavoastră

    Cookies, identificatori de dispozitiv sau alte informații pot fi stocate sau accesate pe dispozitiv în scopurile indicate mai sus.

  • Reclame și conținut personalizat, evaluarea reclamelor și a conținutului, informații despre audiențe și dezvoltarea produselor

    Reclamele și conținutul pot fi personalizate pe baza unui profil. Pot fi adăugate date suplimentare pentru a personaliza mai bine reclamele și conținutul. Performanța reclamelor și conținutului poate fi măsurată. Pot fi obținute informații despre utilizatorii care au văzut reclamele și conținutul. Aceste date pot fi utilizate pentru a dezvolta sau îmbunătăți experiența utilizatorilor, sistemele și software-ul.

Dând clic pe ‘Sunt de acord’, permiteți utilizarea cookie-urilor menționate, a identificatorilor de dispozitiv, balizelor web sau altor tehnologii similare. Setările pot fi modificate din browser-ul dispozitivului dumneavoastră.

În anumite scopuri, interesele legitime pot prima asupra consimțământului. Puteți citi mai multe informații în acest sens în Politica privind Confidențialitatea Datelor și Cookie.